Powrót do katalogu

FENGYUN 1C DEB

AktywnySSO
NORAD 32411·DEBRIS·🇨🇳 China

Wystrzelony May 10, 1999 z Taiyuan Satellite Launch Center

Loading…

Następne Przeloty (najbliższe 24 godziny)

TLE

ŚwieżeSource: Space-Track

Epoka: Sep 13, 2026, 00:11 UTC

1 32411U 99025CZX 26256.00775093  .00000310  00000-0  18529-3 0  9990
2 32411  98.4180 161.7808 0122645 312.8651  46.2270 14.10170629696799

Śledź FENGYUN 1C DEB w czasie rzeczywistym z AllMySat

Download on the App Store